Location: Newark
(45.9456°N, 15.4064°E)
Time: 14:58:32
(UTC+00:00)

SR - Pass Details

Date: 28 January 2020
Orbit: 575 x 880 km, 66.7° (Epoch: 22 February)

Event Time Altitude Azimuth Distance (km) Brightness Sun altitude
Rises 03:36:46 0° 330° (NNW) 3,436 - -29.4°
Reaches altitude 10° 03:39:48 10° 344° (NNW) 2,461 - -28.8°
Exits shadow 03:41:23 16° 357° (N) 2,036 ? -28.6°
Maximum altitude 03:44:21 24° 37° (NE) 1,619 ? -28.1°
Drops below altitude 10° 03:48:37 10° 91° (E) 2,305 ? -27.3°
Sets 03:51:22 0° 105° (ESE) 3,170 ? -26.8°
